Wind_Speed
30 28 28 27 25 25 23 24 25 25 24 23 23 23 23 24 25 25 26 28 29 30 32 31 31 31 30 30 30 28 28 28 27 27 29 29 29 29 29 29 30 30 32
31 29 29 28 27 26 26 26 27 27 27 28 28 27 27 27 28 30 31 32 32 33 33 31 31 30 29 27 26 27 28 27 28 29 30 31 31 31 32 32 33 34 36
32 31 31 30 29 28 28 27 28 29 30 30 32 31 30 31 32 33 35 37 37 34 32 29 29 28 28 27 27 27 28 28 29 30 32 33 33 33 34 35 37 38 39
33 33 33 32 31 30 29 28 28 29 30 31 32 33 33 34 34 35 35 37 37 33 30 29 28 29 29 29 29 28 28 30 30 31 32 33 34 35 37 38 39 41 42
34 35 35 35 34 32 31 30 30 31 32 31 31 32 32 33 34 35 35 34 33 32 32 30 28 29 30 30 30 30 30 31 31 32 33 35 36 38 40 41 42 44 45
31 33 36 36 34 33 32 31 32 31 32 32 33 33 32 33 33 35 35 34 34 34 33 31 30 29 29 30 30 32 32 32 32 33 36 38 39 41 42 44 46 48 49
27 29 32 34 35 35 34 33 32 32 32 33 33 34 34 35 37 38 39 38 38 37 35 32 32 30 30 31 33 34 34 35 35 37 39 41 43 44 46 47 49 51 53
26 27 29 32 34 34 34 34 34 33 33 36 36 36 38 39 40 41 42 42 42 40 37 36 35 33 33 35 35 37 38 38 40 41 42 44 46 48 49 51 53 55 57
26 28 29 30 32 33 34 34 35 35 36 37 38 39 40 41 43 44 45 46 45 43 42 42 42 38 38 39 39 40 41 42 43 44 46 48 50 52 53 55 57 59 61
28 29 30 31 33 34 34 35 36 37 38 39 41 42 43 45 45 46 47 48 47 47 47 46 45 43 42 43 44 44 46 47 47 49 51 52 54 56 57 60 62 63 65
30 31 32 33 34 35 36 37 39 40 41 42 43 44 45 45 47 47 48 47 47 48 48 47 47 46 47 47 47 47 48 50 51 53 55 56 57 59 61 63 64 66 67
31 32 33 35 36 37 38 39 40 41 42 43 43 44 45 46 45 46 46 47 47 46 47 47 48 48 48 48 48 49 51 53 55 56 57 58 60 62 64 65 67 67 66
34 35 36 37 39 39 40 41 42 43 43 44 45 45 45 45 45 45 46 46 45 45 46 47 48 49 49 50 51 53 55 57 58 59 60 61 63 63 63 63 62 61 59
35 36 37 38 39 40 40 41 42 43 43 42 42 42 42 44 43 43 43 44 45 45 46 47 48 50 51 52 53 55 56 57 59 60 60 60 61 60 58 56 55 55 54
33 34 35 35 36 38 38 39 39 40 40 40 41 41 41 41 42 43 44 44 45 45 46 46 48 49 51 52 54 56 57 58 58 58 57 56 56 54 53 52 50 48 47
30 32 32 33 33 34 35 36 36 37 37 37 38 39 39 40 41 42 42 43 44 45 45 46 47 49 50 52 53 54 54 54 54 53 53 52 50 48 46 45 43 42 41
30 29 29 28 29 29 30 30 31 32 33 34 35 37 37 38 39 40 41 42 43 44 45 46 48 49 50 51 51 51 50 50 50 48 47 46 44 42 41 39 37 36 34
25 25 25 25 26 27 27 28 29 30 31 31 32 34 35 36 37 37 38 39 41 42 43 44 46 47 47 48 48 47 47 47 45 44 43 41 38 36 34 32 30 29 28
22 23 23 23 24 24 25 25 26 27 28 28 29 31 32 33 34 35 36 37 39 40 41 42 43 43 43 44 44 43 42 40 38 36 33 31 28 26 24 23 22 21 20
20 21 21 22 22 23 23 24 25 25 26 26 28 29 30 30 31 32 33 34 35 36 37 38 38 39 39 38 37 35 33 31 28 25 23 21 18 17 16 16 15 15 15
18 19 20 20 20 21 21 21 22 23 24 24 25 26 26 27 27 28 30 31 32 33 33 34 33 33 32 31 28 26 23 21 19 17 15 13 12 12 12 12 12 12 13
16 17 18 18 18 19 19 20 21 21 22 22 23 23 23 24 25 26 27 28 29 29 28 28 27 27 26 23 20 17 15 13 12 11 10 9 9 9 9 10 11 12 12
14 15 15 16 17 18 18 19 19 20 20 20 20 21 21 22 23 23 24 25 25 24 24 23 22 20 18 16 14 12 10 10 9 8 8 8 8 9 10 11 12 13 13
12 13 14 15 16 17 17 18 19 19 18 18 19 19 19 19 20 21 21 22 21 21 20 18 17 15 14 12 11 9 8 8 8 8 9 9 9 10 11 12 13 14 14
10 11 13 14 15 16 17 17 17 17 17 17 18 17 17 18 18 18 19 19 18 17 16 14 12 11 10 10 9 8 8 8 8 8 9 10 10 11 11 12 13 14 14
10 11 13 14 15 16 16 16 15 15 15 16 15 16 16 16 16 16 16 16 15 14 12 11 9 9 9 9 8 8 8 8 9 9 10 10 11 11 12 12 13 14 14
Wind_Direction
230 231 230 230 231 235 236 235 235 234 237 241 246 249 253 256 258 259 261 264 265 267 270 273 275 275 274 278 276 272 273 272 272 274 273 273 275 278 279 280 281 281 281
229 228 231 231 234 237 237 239 241 241 244 244 244 248 252 254 258 259 260 263 264 268 271 272 276 277 278 279 277 274 277 275 273 273 273 273 275 276 277 279 280 281 281
229 229 232 232 235 238 240 243 244 243 245 248 249 250 253 254 257 260 261 264 266 269 270 274 279 279 279 277 278 282 276 276 277 274 274 275 276 275 276 277 279 280 281
228 230 233 235 238 241 244 245 246 251 254 255 253 254 256 256 259 265 267 269 266 269 276 280 282 280 281 281 279 280 278 279 277 276 274 274 275 277 278 278 279 280 280
229 230 233 236 239 241 243 246 251 256 259 258 257 258 258 263 265 267 273 273 275 277 283 284 286 285 283 281 279 280 280 279 278 276 276 277 277 278 278 278 279 279 279
231 232 233 236 239 241 244 250 252 256 261 261 262 262 264 267 270 273 279 284 285 282 285 287 288 287 284 282 281 279 280 279 278 279 279 279 280 280 280 280 280 280 280
232 232 234 236 240 242 245 252 255 258 262 264 266 268 270 273 276 281 284 288 288 287 286 288 289 288 286 284 282 282 280 280 280 281 281 280 280 280 280 280 280 280 281
232 234 236 237 241 244 247 252 257 260 264 267 270 272 274 278 281 285 286 289 289 291 292 290 290 289 287 286 284 282 281 280 281 281 280 280 280 280 281 281 281 282 282
235 238 241 243 246 249 251 256 260 263 266 270 275 278 278 279 283 284 286 288 291 290 291 290 290 288 288 286 284 284 282 281 281 281 281 281 281 281 281 281 281 282 282
240 243 246 248 250 253 256 259 263 267 270 274 278 279 280 281 282 285 286 289 289 289 290 289 288 285 285 285 284 282 282 281 282 283 282 282 282 282 282 281 281 282 282
244 247 249 252 254 256 259 264 267 270 274 277 279 280 281 282 283 284 285 286 285 286 286 285 283 282 281 282 282 281 280 281 283 284 283 282 283 283 282 282 282 282 282
246 250 253 256 259 261 263 266 269 272 274 277 278 279 280 281 282 282 282 282 280 280 281 280 280 280 282 282 281 282 282 283 284 284 283 282 282 282 282 283 283 283 284
251 254 257 259 261 264 266 268 270 272 274 275 276 277 279 280 279 279 279 278 278 279 280 281 280 282 283 283 283 283 284 285 285 285 283 283 284 284 284 284 284 285 285
255 258 260 261 263 265 267 268 270 271 272 273 276 277 277 277 275 275 275 276 278 279 280 281 281 282 282 283 284 285 285 286 286 286 286 286 287 286 286 287 287 287 287
259 261 262 263 264 265 266 268 269 270 272 273 274 275 276 274 274 275 276 278 279 280 281 281 282 283 285 286 286 286 287 288 289 289 288 288 289 289 289 289 289 289 289
263 264 265 265 266 267 267 268 269 270 271 272 273 273 274 275 276 278 279 280 281 282 284 284 285 287 288 288 289 289 290 290 291 291 290 290 290 291 291 292 292 291 292
264 265 267 267 266 266 269 269 270 271 272 272 271 271 273 275 277 279 281 282 283 284 286 287 289 290 291 292 292 292 292 293 293 293 293 293 293 293 293 293 294 295 295
262 263 263 264 266 268 269 268 269 271 271 272 273 275 276 279 281 282 283 285 286 288 291 292 293 294 294 295 295 294 295 296 296 296 296 296 295 295 295 296 296 296 297
265 264 264 264 265 267 268 269 271 272 273 275 277 279 281 284 285 287 289 291 293 295 296 297 298 298 298 298 298 298 298 298 299 299 300 301 301 302 301 302 302 303 305
263 263 263 264 266 269 272 274 275 278 280 281 283 285 287 288 290 292 294 296 297 298 299 300 301 302 302 302 302 302 302 303 304 304 306 308 310 311 311 312 314 316 318
261 264 267 268 271 274 277 279 281 283 285 287 289 290 292 294 297 299 301 303 303 304 304 304 305 306 307 308 308 308 309 310 311 315 318 320 322 325 327 330 334 335 337
269 270 271 273 277 280 282 284 286 288 289 291 293 295 298 300 302 304 306 308 309 309 309 310 311 313 315 317 317 320 323 326 330 334 339 344 348 351 352 353 354 355 357
273 274 277 280 282 283 286 288 290 292 294 295 296 298 301 304 306 307 310 313 314 315 317 319 320 324 327 330 333 337 344 351 358 6 11 13 14 14 11 11 11 12 10
281 283 284 285 286 288 289 292 294 296 297 298 300 302 304 306 309 311 314 317 319 322 324 327 331 334 338 342 348 355 2 10 18 22 26 27 28 27 22 20 18 16 13
293 292 292 292 293 293 294 295 296 297 299 301 301 302 304 307 310 314 318 322 325 330 333 336 340 345 349 354 1 12 23 34 38 36 34 37 37 31 26 21 18 15 14
302 301 300 300 300 299 298 297 297 298 300 301 303 305 306 309 313 318 322 325 329 335 339 342 348 356 5 14 21 31 40 45 46 44 44 42 36 30 25 21 19 18 18
Height
5854 5858 5861 5863 5866 5868 5870 5871 5872 5873 5874 5875 5875 5875 5875 5875 5875 5874 5873 5873 5871 5870 5869 5868 5866 5864 5863 5862 5860 5859 5858 5858 5857 5856 5855 5854 5853 5852 5851 5849 5848 5847 5845
5850 5853 5856 5859 5862 5864 5866 5867 5868 5869 5869 5870 5870 5870 5869 5869 5869 5868 5867 5866 5865 5863 5862 5860 5859 5857 5856 5854 5853 5852 5851 5851 5850 5849 5848 5847 5847 5845 5844 5842 5841 5839 5837
5845 5848 5852 5854 5857 5859 5860 5861 5862 5862 5863 5863 5863 5863 5863 5863 5862 5861 5860 5859 5857 5856 5854 5853 5852 5851 5849 5848 5846 5845 5845 5844 5843 5842 5841 5840 5839 5838 5837 5835 5833 5831 5829
5840 5844 5847 5849 5852 5854 5855 5856 5856 5857 5857 5857 5856 5856 5856 5855 5854 5854 5853 5851 5849 5848 5847 5846 5845 5844 5843 5841 5840 5838 5837 5837 5836 5835 5833 5833 5831 5830 5828 5827 5824 5822 5819
5835 5838 5841 5844 5846 5848 5850 5851 5851 5851 5851 5850 5850 5849 5849 5849 5848 5847 5846 5844 5842 5841 5840 5839 5838 5837 5836 5834 5833 5831 5830 5829 5828 5827 5826 5824 5822 5821 5819 5817 5815 5812 5809
5829 5832 5835 5837 5840 5842 5844 5844 5845 5845 5845 5844 5843 5842 5842 5841 5840 5840 5838 5836 5835 5834 5833 5832 5831 5830 5828 5827 5825 5824 5822 5821 5820 5818 5817 5815 5813 5811 5808 5806 5803 5800 5797
5824 5826 5829 5832 5834 5836 5837 5839 5839 5839 5839 5838 5837 5836 5835 5834 5833 5832 5831 5829 5828 5826 5824 5824 5823 5822 5820 5819 5817 5815 5814 5812 5811 5809 5807 5805 5803 5800 5797 5794 5790 5787 5784
5819 5821 5823 5826 5828 5830 5831 5832 5833 5833 5832 5832 5831 5830 5829 5828 5826 5825 5824 5822 5819 5818 5816 5815 5815 5813 5812 5810 5808 5807 5805 5803 5801 5799 5797 5794 5791 5787 5784 5780 5777 5773 5769
5814 5816 5818 5820 5822 5823 5825 5826 5826 5826 5826 5825 5824 5823 5821 5820 5819 5818 5816 5814 5811 5809 5808 5807 5805 5803 5802 5800 5798 5797 5795 5792 5790 5787 5784 5781 5778 5774 5770 5766 5762 5758 5753
5809 5811 5813 5814 5816 5817 5818 5819 5819 5819 5818 5818 5817 5816 5814 5813 5811 5809 5807 5805 5802 5800 5798 5796 5794 5793 5791 5790 5787 5785 5783 5780 5778 5775 5771 5768 5764 5760 5755 5751 5746 5740 5735
5804 5805 5806 5808 5808 5809 5810 5811 5811 5810 5810 5809 5808 5806 5805 5804 5802 5800 5798 5795 5793 5790 5788 5786 5784 5782 5780 5777 5775 5773 5770 5767 5764 5760 5757 5753 5748 5744 5739 5734 5728 5723 5717
5797 5798 5800 5801 5801 5802 5802 5802 5802 5802 5801 5800 5798 5797 5795 5794 5792 5790 5787 5785 5783 5780 5778 5775 5772 5770 5768 5765 5762 5760 5757 5753 5750 5746 5741 5737 5732 5727 5721 5716 5710 5704 5698
5790 5791 5792 5793 5793 5794 5794 5794 5793 5792 5792 5790 5789 5787 5785 5784 5782 5779 5777 5775 5772 5769 5767 5764 5761 5759 5756 5753 5750 5746 5742 5738 5734 5730 5725 5720 5714 5709 5703 5698 5692 5686 5681
5782 5783 5784 5784 5784 5784 5784 5784 5783 5783 5781 5780 5779 5777 5775 5773 5771 5769 5766 5764 5761 5758 5755 5753 5750 5747 5743 5740 5736 5732 5727 5723 5718 5713 5707 5702 5697 5691 5686 5681 5676 5671 5666
5773 5774 5774 5775 5775 5775 5774 5774 5773 5772 5771 5770 5768 5767 5765 5763 5761 5758 5756 5753 5750 5747 5744 5741 5737 5734 5730 5726 5722 5717 5712 5707 5702 5696 5690 5685 5680 5675 5670 5666 5661 5656 5652
5764 5765 5765 5765 5765 5764 5764 5764 5763 5762 5761 5759 5758 5756 5755 5753 5750 5748 5745 5742 5739 5736 5732 5729 5725 5721 5717 5713 5708 5703 5698 5692 5686 5681 5675 5670 5666 5661 5656 5653 5648 5644 5640
5755 5756 5756 5756 5755 5754 5754 5754 5753 5752 5751 5750 5748 5747 5745 5742 5740 5737 5735 5732 5729 5725 5722 5718 5713 5709 5704 5700 5695 5689 5684 5678 5672 5667 5661 5656 5652 5648 5645 5641 5637 5634 5631
5747 5748 5747 5747 5747 5746 5745 5745 5744 5743 5742 5741 5739 5737 5736 5733 5731 5728 5725 5722 5718 5715 5711 5706 5702 5697 5692 5687 5682 5676 5670 5665 5659 5654 5649 5644 5640 5637 5633 5630 5628 5626 5623
5741 5740 5740 5740 5739 5738 5738 5737 5736 5735 5734 5733 5731 5729 5727 5724 5722 5719 5716 5712 5709 5705 5701 5696 5691 5686 5680 5675 5669 5663 5658 5653 5648 5643 5638 5634 5631 5628 5625 5623 5622 5620 5617
5734 5734 5734 5733 5733 5732 5731 5730 5729 5728 5727 5725 5723 5721 5719 5717 5714 5711 5707 5704 5700 5696 5691 5686 5681 5675 5670 5664 5658 5653 5648 5643 5639 5635 5631 5628 5626 5624 5621 5620 5618 5616 5613
5728 5728 5728 5727 5726 5726 5725 5724 5723 5721 5720 5718 5716 5714 5712 5709 5706 5703 5700 5696 5692 5687 5682 5677 5672 5667 5661 5656 5650 5645 5641 5637 5634 5630 5627 5625 5623 5621 5619 5617 5616 5614 5611
5724 5723 5722 5722 5721 5720 5719 5718 5717 5715 5714 5712 5710 5708 5706 5703 5700 5697 5693 5689 5685 5680 5675 5670 5665 5659 5654 5649 5645 5641 5637 5633 5631 5628 5626 5624 5622 5620 5619 5617 5615 5613 5611
5720 5719 5718 5717 5716 5715 5714 5713 5711 5710 5708 5706 5704 5702 5700 5697 5694 5691 5687 5683 5678 5674 5669 5664 5659 5654 5650 5646 5642 5638 5635 5633 5630 5628 5626 5624 5623 5621 5620 5618 5615 5613 5611
5716 5715 5714 5713 5712 5711 5709 5708 5706 5704 5702 5701 5699 5697 5694 5692 5689 5685 5682 5678 5673 5669 5664 5660 5656 5652 5648 5644 5641 5638 5635 5633 5631 5629 5628 5626 5624 5623 5621 5619 5617 5614 5612
5713 5712 5711 5709 5708 5706 5704 5702 5701 5699 5697 5696 5694 5692 5689 5687 5684 5681 5677 5673 5669 5665 5662 5658 5654 5651 5647 5644 5641 5638 5636 5634 5632 5631 5629 5628 5626 5625 5623 5621 5618 5616 5613
5710 5709 5707 5705 5703 5701 5699 5698 5696 5694 5693 5691 5689 5687 5685 5682 5680 5677 5673 5670 5666 5663 5660 5657 5654 5651 5648 5645 5642 5640 5638 5636 5635 5633 5632 5630 5628 5627 5624 5622 5620 5617 5614